Starlink 34036

operational
NORAD ID: 63945 Int'l Des: 2025-098 Owner: SPXS Country: US Constellation: starlink
LEOCIRCULAR

About Starlink 34036

Description loading...

Live Position

Loading 3D Globe...

Upcoming Passes

Altitude History

Altitude vs Time

uPlot chart will show altitude changes over time

Two-Line Element Set

1 63945U 25098V 26102.56537946 .00001787 00000-0 15752-3 0 9993
2 63945 70.0022 189.1676 0003347 268.5862 91.4914 14.98331858 51624
Epoch: Apr 12, 2026 • Age: 19 hours

Current Status

Altitude 595.0 km
Velocity 7.56 km/s
Sub-Earth Point -68.91°S, 149.41°E
Launch Date May 13, 2025
Age 0.9 years
Type internet

Technical Details

Classification Payload
Mass 575.00 kg
Dry Mass 530.00 kg
Total Mass 575.00 kg
Length 0.30 m
Diameter 4.10 m
Span 29.00 m
Shape Box + pan
Manufacturer SPXS
Bus Type Starlink V2MO
Phase Status In Orbit
Owner/State SPXS/US

Large Constellations

Loading constellations...